Location: Biltmore Gardens
(41.6070°N, 83.4666°W)
Time: 10:44:29
(UTC+00:00)

Cosmos 2344 - Pass Details

Date: 28 October 2020
Orbit: 1246 x 2997 km, 63.3° (Epoch: 25 November)

Event Time Altitude Azimuth Distance (km) Brightness Sun altitude
Exits shadow 06:57:42 14° 63° (ENE) 2,927 5.8 -54.3°
Drops below altitude 10° 06:58:57 10° 56° (NE) 3,276 6.1 -54.1°
Sets 07:02:19 0° 44° (NE) 4,347 7.0 -53.7°
